TimeEDT,TemperatureF,Dew PointF,Humidity,Sea Level PressureIn,VisibilityMPH,Wind Direction,Wind SpeedMPH,Gust SpeedMPH,PrecipitationIn,Events,Conditions,WindDirDegrees,DateUTC
12:53 AM,57.9,55.0,90,30.09,10.0,Calm,Calm,-,N/A,,Clear,0,2012-11-03 04:53:00
1:53 AM,55.9,54.0,93,30.08,9.0,Calm,Calm,-,N/A,,Clear,0,2012-11-03 05:53:00
2:53 AM,57.9,55.0,90,30.07,10.0,Calm,Calm,-,N/A,,Clear,0,2012-11-03 06:53:00
3:53 AM,57.0,55.0,93,30.06,10.0,Calm,Calm,-,N/A,,Clear,0,2012-11-03 07:53:00
4:53 AM,55.9,54.0,93,30.07,8.0,Calm,Calm,-,N/A,,Clear,0,2012-11-03 08:53:00
5:53 AM,57.0,54.0,89,30.08,10.0,Calm,Calm,-,N/A,,Clear,0,2012-11-03 09:53:00
6:53 AM,57.0,54.0,89,30.09,10.0,Calm,Calm,-,N/A,,Clear,0,2012-11-03 10:53:00
7:53 AM,55.9,53.1,90,30.12,10.0,Calm,Calm,-,N/A,,Clear,0,2012-11-03 11:53:00
8:53 AM,64.9,62.1,90,30.13,10.0,Calm,Calm,-,N/A,,Clear,0,2012-11-03 12:53:00
9:53 AM,72.0,64.9,78,30.14,10.0,Calm,Calm,-,N/A,,Clear,0,2012-11-03 13:53:00
10:53 AM,75.0,63.0,66,30.14,10.0,WSW,5.8,-,N/A,,Clear,250,2012-11-03 14:53:00
11:53 AM,77.0,64.0,64,30.13,10.0,West,6.9,-,N/A,,Partly Cloudy,260,2012-11-03 15:53:00
12:53 PM,77.0,64.0,64,30.12,10.0,West,9.2,-,N/A,,Scattered Clouds,260,2012-11-03 16:53:00
1:53 PM,78.1,64.9,64,30.09,10.0,West,10.4,-,N/A,,Clear,260,2012-11-03 17:53:00
2:53 PM,78.1,64.9,64,30.07,10.0,West,13.8,-,N/A,,Partly Cloudy,270,2012-11-03 18:53:00
3:53 PM,79.0,64.9,62,30.06,10.0,West,12.7,-,N/A,,Clear,280,2012-11-03 19:53:00
4:53 PM,78.1,64.9,64,30.05,10.0,WNW,12.7,-,N/A,,Clear,290,2012-11-03 20:53:00
5:53 PM,75.9,66.0,71,30.05,10.0,WNW,8.1,-,N/A,,Clear,290,2012-11-03 21:53:00
6:53 PM,72.0,63.0,73,30.06,10.0,NW,5.8,-,N/A,,Clear,310,2012-11-03 22:53:00
7:53 PM,70.0,64.9,84,30.08,10.0,NW,5.8,-,N/A,,Clear,320,2012-11-03 23:53:00
8:53 PM,69.1,64.9,87,30.09,10.0,NNW,4.6,-,N/A,,Clear,330,2012-11-04 00:53:00
9:53 PM,68.0,64.9,90,30.09,8.0,Calm,Calm,-,N/A,,Clear,0,2012-11-04 01:53:00
10:42 PM,66.2,64.4,94,30.10,2.0,Calm,Calm,-,N/A,,Clear,0,2012-11-04 02:42:00
10:53 PM,66.9,64.9,93,30.09,5.0,Calm,Calm,-,N/A,,Clear,0,2012-11-04 02:53:00
11:26 PM,64.4,62.6,94,30.10,0.2,Calm,Calm,-,N/A,Fog,Fog,0,2012-11-04 03:26:00
11:42 PM,64.4,62.6,94,30.10,0.2,Calm,Calm,-,N/A,Fog,Fog,0,2012-11-04 03:42:00
11:49 PM,64.4,62.6,94,30.10,0.2,Calm,Calm,-,N/A,Fog,Fog,0,2012-11-04 03:49:00
11:53 PM,64.9,62.1,90,30.10,0.2,Calm,Calm,-,N/A,Fog,Fog,0,2012-11-04 03:53:00